Theta_e
289 288 287 287 287 286 286 286 286 286 286 286 286 285 284 284 285 285 284 284 283 283 284 283 283 285 286 287 291 291 290 289 282 283 285 285 285 285 286 287 288 289 291
287 287 287 287 286 284 284 285 285 285 286 285 285 285 284 284 283 283 283 283 282 282 283 283 282 284 284 286 289 289 289 288 284 281 284 284 284 285 285 286 287 288 289
287 286 286 285 284 283 283 284 284 284 284 284 284 283 284 285 282 283 282 282 282 282 283 283 282 282 283 285 286 288 288 288 286 284 282 284 284 285 284 285 284 284 287
285 285 284 284 284 283 283 283 283 282 282 282 283 283 284 283 283 282 282 281 282 283 284 285 283 281 282 284 284 286 287 285 285 284 282 282 283 284 284 281 280 282 281
283 283 283 284 284 283 282 282 282 282 282 282 282 283 284 284 284 282 281 281 281 281 281 284 284 282 284 284 283 283 286 285 284 283 281 281 282 282 280 281 279 279 280
282 282 283 282 283 282 282 281 281 281 281 281 281 282 282 283 285 285 282 280 280 280 279 282 282 282 282 283 284 285 286 285 284 282 282 281 281 281 281 279 279 278 275
281 281 281 281 281 281 282 281 280 280 280 280 280 281 281 283 285 284 283 280 280 279 279 279 281 282 282 280 280 282 282 285 286 284 282 282 281 282 282 280 279 277 276
280 280 280 280 279 280 280 280 280 279 279 279 279 280 281 283 285 284 283 280 279 279 279 279 280 281 280 279 278 277 279 280 281 283 284 283 283 282 282 281 277 276 276
279 279 279 279 279 280 279 279 279 279 279 278 279 279 280 281 284 284 281 279 279 278 279 279 280 280 281 280 276 276 276 277 280 281 283 283 284 284 281 279 277 275 274
279 279 279 280 279 279 279 279 280 279 280 279 279 279 280 280 284 284 282 280 278 278 278 278 280 280 281 280 276 276 275 276 276 276 275 275 276 276 277 275 277 274 272
280 279 279 279 280 279 279 280 279 279 280 279 279 279 279 279 281 284 284 281 278 278 277 276 278 280 280 280 279 277 277 277 276 274 273 272 272 272 272 272 272 274 273
278 278 277 277 280 280 277 279 279 279 278 277 278 278 279 279 281 282 283 283 282 278 277 277 277 279 278 279 277 278 278 276 273 270 270 270 270 271 270 269 270 269 270
276 274 274 275 278 279 277 277 277 278 276 277 277 275 276 278 278 281 282 283 282 278 278 279 278 278 277 274 276 276 272 272 271 269 269 269 270 269 269 267 266 266 264
274 273 273 275 275 275 279 279 277 277 276 277 276 273 274 275 277 278 278 280 279 279 277 275 276 275 276 274 270 270 269 269 269 268 265 264 264 265 264 265 262 262 260
274 274 274 274 275 275 276 276 277 278 279 277 276 272 268 271 277 279 279 278 277 278 270 268 269 269 268 268 267 266 265 265 265 265 264 264 265 264 265 263 261 258 259
273 274 274 274 274 275 275 276 280 280 280 280 280 278 277 279 279 279 279 279 279 277 265 265 265 264 265 265 264 263 264 263 261 262 261 260 259 260 261 261 259 257 256
275 274 274 274 275 274 274 273 273 276 279 279 279 278 278 277 278 277 277 277 276 272 265 264 262 263 262 262 261 261 260 261 257 260 257 258 259 257 260 259 257 255 255
275 274 274 274 274 275 274 273 272 270 268 267 275 275 277 276 276 277 276 271 261 264 259 258 258 260 260 260 260 258 258 258 259 258 258 256 257 255 255 254 254 253 253
274 274 274 274 274 274 274 273 272 272 270 266 264 270 267 273 274 274 272 259 257 257 256 257 256 258 258 259 258 258 255 255 254 254 255 254 255 253 252 252 253 255 254
275 274 274 273 273 272 272 271 271 270 269 267 265 264 262 262 259 257 258 257 256 255 256 256 256 256 256 255 257 255 255 255 254 254 253 252 252 252 252 252 251 253 252
275 274 274 272 272 272 272 271 271 270 269 267 265 264 270 263 260 257 257 256 257 255 255 255 255 254 253 253 254 254 253 254 253 252 252 251 251 252 251 252 251 251 250
275 274 272 272 272 272 271 271 271 270 269 267 264 265 274 260 261 258 257 256 256 255 254 254 254 253 253 252 252 252 252 251 251 251 251 251 251 251 251 251 251 252 252
274 272 272 272 272 272 271 271 271 270 269 267 267 265 262 262 261 261 258 256 255 256 255 254 253 253 251 252 251 251 251 251 250 249 250 250 250 250 250 250 250 251 250
274 273 272 272 271 271 271 270 270 270 269 268 267 266 265 264 262 262 260 258 256 256 254 253 252 253 251 251 251 251 250 249 248 248 248 249 249 249 249 248 249 249 250
274 273 273 272 271 271 270 270 270 270 269 268 268 267 266 264 264 263 261 260 259 257 256 254 252 253 252 252 251 251 252 254 250 251 248 248 248 248 247 247 248 248 248
275 274 273 272 271 271 270 270 270 270 269 269 268 268 267 266 265 264 263 261 260 259 259 257 255 254 253 252 252 254 259 260 252 253 248 249 249 248 247 248 249 248 249
Wind_Speed
6 6 6 6 7 8 8 9 9 9 11 13 14 13 14 15 14 13 13 13 14 14 13 14 16 16 12 11 9 7 6 3 4 3 3 4 6 9 11 12 12 13 15
6 5 6 6 6 8 8 9 9 10 9 11 11 12 11 13 14 14 14 13 14 16 16 14 16 12 15 14 11 7 7 7 4 9 3 4 7 7 10 13 11 11 13
6 6 6 6 7 7 7 8 8 9 10 10 11 12 12 14 13 13 13 13 13 15 14 14 13 13 14 13 13 8 6 6 6 5 4 3 5 7 11 12 11 13 11
6 6 6 6 7 6 6 6 6 6 8 9 9 10 12 11 12 12 12 12 14 13 12 11 13 13 14 15 13 13 5 7 6 6 5 4 5 5 7 9 10 9 9
6 7 7 6 6 5 5 5 6 6 7 7 6 11 13 13 11 12 10 12 11 11 12 12 13 14 21 19 10 14 9 4 6 6 6 3 3 4 5 6 9 8 7
6 7 7 6 5 5 5 5 6 6 6 6 7 8 13 10 20 20 13 9 10 11 13 15 13 16 16 21 23 24 21 9 5 4 5 5 7 5 5 6 6 3 4
6 7 7 6 5 6 5 5 6 7 6 7 9 8 10 12 20 19 18 8 9 10 12 12 12 11 14 10 17 21 22 28 22 6 6 5 5 3 6 6 5 4 3
5 7 7 6 6 6 6 5 5 5 6 5 7 6 8 12 20 19 17 8 8 9 11 13 12 13 17 13 9 12 13 14 15 10 9 7 7 4 3 3 4 6 4
6 7 7 7 6 6 6 7 4 4 5 5 5 8 8 11 20 19 13 8 9 9 9 11 11 13 23 22 12 11 11 11 13 20 21 21 19 12 7 5 3 3 2
7 6 7 6 7 7 6 5 5 3 4 4 5 5 10 9 18 19 14 7 8 7 8 9 20 16 21 22 12 11 11 10 9 9 10 13 14 13 19 9 3 3 3
8 6 7 5 7 7 6 4 5 5 3 4 4 4 5 6 10 17 18 8 7 7 7 8 8 20 22 22 19 11 12 8 11 8 8 7 9 9 8 8 8 5 3
10 8 6 5 6 6 5 5 5 5 2 2 3 3 4 7 12 14 16 16 13 7 8 6 7 19 20 22 15 20 19 12 7 7 8 8 7 6 7 7 8 7 7
11 8 6 5 6 6 4 3 3 4 3 1 3 2 3 5 5 15 16 17 14 9 7 10 13 16 20 16 22 21 13 7 7 8 7 5 3 3 4 2 3 6 7
12 10 7 8 7 4 4 3 2 4 4 2 4 3 3 4 5 6 7 6 11 7 9 6 10 13 19 14 10 12 8 7 6 5 3 3 3 4 4 3 3 3 4
12 10 9 7 7 6 5 5 4 4 4 2 2 3 2 3 7 11 10 6 5 9 5 4 6 6 7 7 7 8 7 7 8 6 5 5 4 4 5 4 4 4 5
13 10 8 8 7 7 7 8 11 12 9 7 9 6 3 8 9 9 13 13 13 14 5 5 6 5 7 6 6 5 6 6 5 4 4 4 3 3 3 4 4 4 4
15 13 9 10 9 9 8 8 9 8 9 8 9 9 8 8 9 8 7 10 14 10 6 5 3 5 5 5 4 4 4 4 3 4 3 4 4 4 4 4 3 3 4
12 15 11 9 9 9 8 8 7 8 5 1 5 5 7 8 9 10 7 9 4 6 4 3 2 3 4 4 4 3 3 4 4 4 4 4 5 3 4 4 4 3 3
12 10 9 8 8 8 8 7 6 7 6 3 1 2 2 4 8 11 13 4 3 3 2 3 2 2 3 4 4 4 3 3 2 3 3 4 4 3 4 3 3 4 3
12 14 12 9 9 9 8 8 7 6 6 4 4 3 2 2 2 1 3 2 3 2 2 2 2 3 2 3 4 4 4 4 3 3 3 3 3 3 3 3 3 3 3
10 11 14 9 9 9 8 9 8 7 7 5 4 3 8 4 4 3 3 2 3 2 2 0 2 2 2 2 2 3 4 4 3 2 3 3 3 3 2 2 2 2 2
12 12 11 11 9 9 8 8 8 9 8 7 3 4 11 3 4 3 4 3 3 3 3 2 1 2 2 2 2 2 2 3 4 3 2 2 2 2 2 2 3 3 3
13 13 11 9 9 11 9 8 8 9 8 6 6 5 3 4 4 4 4 3 3 3 3 3 3 1 0 1 2 3 3 1 3 2 2 2 2 2 2 2 2 3 3
14 14 13 11 10 10 9 9 8 9 9 8 7 7 7 6 5 6 5 4 3 2 2 3 3 5 2 1 1 1 2 2 2 1 1 1 1 2 2 2 2 1 1
13 13 13 12 12 11 10 9 9 9 8 9 8 7 7 6 6 6 5 5 5 4 4 3 3 4 5 5 2 2 2 2 2 1 1 1 2 3 2 3 2 2 2
14 14 12 11 11 11 11 11 10 11 10 9 8 8 8 8 8 7 7 7 6 5 5 4 5 6 5 4 5 5 4 4 3 3 2 2 2 1 2 2 3 2 1
Wind_Direction
66 58 52 46 50 45 37 26 24 26 31 33 27 26 24 21 18 24 21 21 23 16 15 20 14 0 357 352 346 0 357 39 117 80 50 27 47 63 62 59 67 76 74
87 71 63 58 49 53 41 35 22 27 27 41 25 24 26 27 15 21 23 19 18 18 16 21 16 6 3 356 347 10 20 33 100 114 79 51 63 57 73 72 66 63 77
90 82 70 59 55 51 43 39 32 32 23 29 35 18 18 28 20 24 26 25 20 20 16 19 18 12 9 0 359 2 40 44 42 71 74 49 69 78 82 72 63 61 56
101 88 73 63 60 51 48 46 39 34 34 32 37 16 29 28 25 27 31 27 23 17 7 7 24 16 18 9 7 1 23 66 56 54 57 61 71 66 83 89 80 67 73
109 96 82 72 65 55 47 54 48 42 37 29 37 29 29 27 26 28 31 27 15 6 3 5 32 19 18 28 18 11 6 41 84 79 59 44 63 73 81 87 91 95 73
121 107 101 89 85 64 52 54 57 50 40 29 30 39 27 27 31 33 39 27 16 16 14 19 23 21 14 26 29 27 32 16 56 97 101 87 72 85 84 93 102 112 101
128 113 108 104 93 85 57 50 56 58 42 40 28 35 24 27 33 34 38 30 24 18 21 13 19 17 17 17 39 35 27 35 35 34 82 76 81 83 106 108 84 79 90
134 118 113 111 104 89 86 62 47 61 54 40 37 23 29 27 33 36 34 33 22 24 30 15 10 14 24 24 33 44 43 36 32 30 46 58 79 90 76 104 106 107 102
151 133 126 128 122 108 96 90 46 53 66 43 45 32 38 22 34 39 34 30 21 23 25 17 19 26 31 34 33 42 42 38 42 49 52 59 63 69 95 107 109 100 72
156 146 130 136 128 114 107 97 95 55 71 67 45 48 41 18 29 33 41 34 12 11 14 22 27 31 36 41 39 37 39 25 34 43 40 38 36 38 41 40 2 105 118
131 132 125 128 123 120 114 98 95 74 47 61 68 51 45 23 17 32 38 38 26 6 9 9 20 35 37 41 41 42 47 37 38 41 43 44 35 32 28 28 30 34 66
137 139 128 130 125 115 116 118 111 99 62 37 45 41 42 32 18 25 37 48 37 16 12 5 15 45 42 44 43 46 49 51 47 47 47 37 30 29 31 38 44 55 46
132 138 130 122 117 114 98 113 117 108 93 40 63 15 43 32 5 22 30 39 49 32 15 21 35 50 52 42 44 41 35 37 47 49 38 28 17 359 5 29 49 59 55
138 144 140 138 133 122 117 113 74 92 75 51 58 22 35 28 16 30 23 27 40 35 21 360 30 49 60 53 38 33 28 22 37 40 25 344 345 8 24 4 41 351 62
142 149 150 146 140 127 110 106 98 78 99 122 88 93 54 25 31 33 26 26 39 48 34 5 10 4 30 42 43 36 26 24 25 8 24 20 20 16 11 354 22 26 65
148 155 158 151 144 137 131 123 114 108 99 97 84 101 45 56 51 48 40 38 52 68 47 34 7 356 19 20 36 32 33 24 9 15 18 18 19 21 15 6 44 59 68
156 157 157 155 154 151 148 143 139 109 110 90 92 85 79 67 58 58 54 49 61 71 71 51 18 3 356 4 15 29 27 11 352 27 32 20 1 3 35 23 12 50 24
153 158 159 163 156 155 158 149 152 141 147 175 78 98 89 75 62 56 81 66 31 33 69 78 56 8 347 353 356 6 8 15 21 29 28 15 10 40 33 16 17 35 23
149 160 155 157 154 151 147 146 157 141 147 155 158 132 43 84 79 73 69 96 115 46 58 64 86 52 6 349 344 347 5 31 45 40 19 27 12 51 23 20 20 36 42
153 155 152 153 150 147 151 151 147 141 146 167 172 182 172 78 66 54 61 91 89 89 44 86 73 81 51 14 345 345 352 3 22 42 24 24 15 51 51 38 28 44 25
152 155 152 147 163 160 159 159 155 150 159 169 179 184 177 141 159 147 143 142 132 139 118 61 60 81 76 57 23 6 1 334 352 38 43 14 22 31 5 47 53 50 42
156 158 162 163 160 160 161 157 163 157 162 164 170 187 164 130 156 160 156 171 173 159 167 149 118 131 150 125 101 46 27 344 334 356 28 31 30 26 18 40 24 26 38
156 158 158 158 164 157 157 165 169 161 162 163 168 163 151 169 179 175 168 174 176 173 174 142 141 128 220 170 142 147 135 211 260 294 342 36 56 49 43 56 40 40 46
160 163 164 160 161 169 166 171 165 167 165 163 177 175 182 177 184 186 169 160 168 198 178 172 168 167 179 211 183 192 163 181 136 240 255 94 108 63 73 71 50 56 84
162 164 164 168 169 172 165 170 170 168 179 166 183 182 180 176 179 189 173 167 174 173 192 194 196 191 186 187 201 244 258 73 121 148 18 77 109 109 107 107 102 48 39
166 167 167 165 171 173 176 176 177 173 185 174 184 185 182 183 183 184 181 177 184 194 184 179 196 205 202 206 205 207 212 190 184 176 127 124 123 89 86 111 95 97 83